Wind_Speed
14 13 13 13 13 13 13 14 15 15 17 18 19 20 20 21 22 22 22 22 22 22 22 22 23 23 23 23 22 22 22 22 22 22 23 23 23 24 25 26 27 27 27
14 14 14 14 15 15 15 15 17 17 18 19 21 21 22 23 24 24 24 24 24 24 25 25 25 26 26 26 25 25 25 25 25 26 26 26 27 27 28 29 29 30 31
16 16 16 16 16 16 17 17 17 18 19 21 21 22 23 23 24 25 25 26 26 26 27 27 27 26 27 27 27 28 28 28 29 29 29 30 30 31 32 33 33 34 35
18 18 18 17 18 18 19 19 19 20 21 22 23 23 24 25 24 25 26 26 26 28 29 28 28 28 28 29 30 31 31 32 32 33 33 34 35 35 36 37 37 38 38
19 19 19 19 20 21 21 21 21 21 22 24 24 25 25 25 25 25 25 26 27 29 30 29 29 29 30 32 32 33 34 35 36 37 38 39 39 40 41 41 42 42 43
18 19 21 21 22 23 23 23 24 24 24 25 26 27 27 26 26 26 27 27 28 29 29 30 31 32 33 34 34 35 37 39 40 41 43 44 45 45 46 46 47 47 48
18 19 20 22 23 24 24 24 25 25 25 26 27 28 28 29 28 28 29 30 30 31 31 32 33 34 34 36 38 39 41 42 44 45 47 48 49 49 50 51 52 52 53
19 20 20 21 23 23 22 24 24 25 25 26 27 27 28 29 29 30 31 32 34 35 35 35 36 36 38 40 41 44 45 46 47 49 50 51 52 54 55 56 57 57 57
20 20 21 21 21 23 24 24 24 25 25 25 26 27 28 28 30 32 33 34 35 36 37 39 40 41 42 44 46 47 48 49 51 52 53 55 56 58 58 59 60 61 62
21 21 20 21 21 21 22 22 23 25 25 26 27 28 30 31 32 33 35 37 37 38 39 41 43 45 46 48 49 50 51 52 54 55 56 58 60 61 61 62 63 63 64
20 20 20 20 21 22 23 24 24 25 27 28 30 31 32 33 34 35 37 38 40 42 43 44 46 48 50 51 52 53 54 56 57 58 60 61 62 63 63 63 64 65 66
22 21 21 22 23 24 26 26 27 28 29 30 32 33 35 36 37 38 39 40 42 44 46 48 49 50 51 52 54 55 57 59 60 61 62 62 63 64 65 65 65 66 67
24 24 25 25 26 27 28 29 29 30 32 33 35 36 37 37 39 40 41 42 44 46 48 49 51 52 53 54 56 57 59 60 61 62 62 62 63 64 65 66 67 67 68
26 27 28 29 29 31 31 32 32 33 35 36 37 38 39 40 41 43 44 45 46 48 49 50 51 52 54 55 56 57 58 58 58 59 59 59 60 60 61 63 64 66 67
30 31 32 33 34 35 35 35 35 36 37 38 39 41 42 43 44 45 46 46 47 49 50 51 52 53 54 55 56 56 56 56 56 56 56 56 57 57 58 59 60 60 60
33 34 35 36 37 37 37 38 38 39 40 40 41 42 44 45 45 45 46 46 47 49 50 52 52 53 53 54 54 53 53 53 54 55 56 56 56 56 56 56 55 55 55
36 37 37 38 38 39 39 40 40 40 41 41 42 43 43 44 44 45 45 47 47 48 49 50 50 50 50 50 50 50 50 51 52 52 53 53 52 52 52 51 51 51 51
37 38 38 38 39 39 40 40 40 40 41 41 41 41 42 43 43 44 45 46 46 46 46 46 47 47 47 47 47 47 47 48 48 48 48 47 46 46 46 46 46 46 45
38 39 39 40 40 40 40 40 40 40 40 41 41 41 41 42 42 42 43 43 42 42 42 42 42 42 42 43 43 43 43 43 42 41 41 41 40 40 40 40 40 40 40
39 39 39 39 39 40 39 39 38 38 39 38 39 39 39 40 39 38 38 37 37 37 36 36 37 37 38 38 38 38 38 39 38 37 37 36 36 35 34 34 33 33 33
38 39 39 38 38 38 37 37 37 37 37 37 37 37 36 36 35 34 34 34 33 33 33 34 34 34 34 34 34 34 34 34 32 31 31 31 30 30 30 30 29 29 29
36 36 36 36 36 35 35 35 35 35 35 35 34 33 32 31 30 30 30 30 30 30 30 30 30 29 29 29 29 29 28 27 26 26 26 27 26 26 25 25 25 25 25
32 32 32 32 32 32 33 34 33 33 32 31 30 29 28 27 27 27 26 26 26 26 26 26 25 26 25 25 25 24 24 24 23 23 24 24 23 22 22 22 22 22 22
30 30 30 30 30 31 31 31 30 29 28 28 27 25 24 23 23 23 23 23 24 24 24 23 23 23 23 22 22 22 22 22 22 22 22 22 21 21 21 20 20 20 21
29 29 29 29 29 29 28 28 27 26 25 24 22 20 20 20 21 21 22 22 22 22 22 22 22 21 21 20 21 21 21 21 21 22 21 21 20 20 20 19 20 20 20
27 27 26 26 25 25 24 23 23 22 21 20 19 18 18 19 19 20 20 21 21 21 21 21 21 20 20 20 20 21 20 20 20 20 20 20 19 18 18 19 19 20 21
Wind_Direction
243 248 253 258 264 268 272 275 279 284 286 289 289 290 291 290 291 290 289 290 290 291 288 288 285 283 281 280 280 279 278 276 275 275 275 273 272 272 271 270 269 268 267
241 248 252 259 264 268 271 276 280 283 287 290 291 290 289 289 289 289 288 288 287 287 288 287 286 284 280 278 275 276 276 274 274 274 274 273 271 271 271 270 270 269 267
242 246 251 258 263 268 272 276 279 281 286 288 289 291 289 290 291 289 288 289 286 285 287 286 285 283 280 278 276 274 275 274 273 272 273 272 272 272 271 270 269 269 268
247 249 253 257 263 269 273 275 278 279 281 283 287 288 288 288 290 290 288 288 287 286 286 286 285 281 278 278 276 274 275 274 272 273 273 273 273 272 272 271 270 269 268
252 254 255 259 265 270 272 275 277 277 280 281 284 286 287 286 286 288 288 288 288 286 285 284 283 281 279 278 277 275 275 274 273 273 274 274 274 273 273 272 271 270 268
254 257 258 262 267 271 272 274 275 276 280 281 282 283 283 283 284 284 286 287 287 285 282 281 281 279 280 279 277 277 277 276 275 275 275 274 273 273 273 272 271 270 270
263 264 266 269 272 274 273 274 276 276 278 280 282 283 283 281 280 282 283 284 285 284 282 280 280 279 279 280 278 277 276 276 275 275 275 274 274 273 273 273 272 271 270
270 270 274 275 274 274 273 273 276 276 277 280 281 282 283 281 279 281 282 283 283 282 281 280 279 278 279 279 279 278 277 276 276 275 275 275 274 273 273 272 272 271 271
273 277 278 279 277 276 275 277 276 277 278 280 281 280 280 281 281 282 283 284 285 284 283 281 279 279 279 279 280 278 277 277 276 275 275 275 273 273 273 272 271 270 270
273 280 282 278 277 278 279 280 279 276 277 280 280 280 280 280 281 283 283 283 283 283 284 283 282 281 281 282 281 279 279 278 277 276 276 275 274 274 273 273 272 271 270
282 286 288 285 283 282 282 282 281 280 280 282 282 282 283 282 282 283 284 284 283 284 284 284 283 283 283 282 281 280 280 278 278 277 276 276 275 273 273 272 271 270 269
284 287 290 290 289 286 284 285 285 283 283 284 284 283 284 283 284 285 285 284 284 284 285 285 284 283 283 282 281 281 280 279 278 278 278 277 276 275 275 274 272 271 269
283 285 287 289 287 287 288 288 286 284 285 285 285 285 285 285 286 287 286 286 286 285 285 285 284 283 284 283 283 282 282 281 280 279 279 279 279 278 277 276 274 273 272
284 284 286 287 287 286 287 285 285 285 285 286 286 286 287 287 287 287 287 287 287 286 285 285 284 284 284 284 284 284 283 283 282 282 282 282 281 281 279 278 276 275 274
282 283 284 286 287 287 287 287 287 286 287 288 288 288 288 288 289 289 288 288 288 287 287 286 286 286 286 286 285 285 285 284 284 283 283 283 283 282 282 281 280 279 278
282 283 285 285 285 286 286 286 286 286 288 289 288 289 288 289 290 290 289 289 288 288 287 287 287 286 287 287 287 287 287 286 286 285 285 285 285 285 285 284 283 282 281
282 283 285 285 286 286 286 286 287 288 289 289 289 289 290 290 290 289 289 289 289 289 288 288 288 288 289 289 289 289 289 288 288 287 287 287 287 287 286 286 285 284 284
282 283 284 284 285 286 286 286 288 289 290 289 290 290 290 291 291 290 290 290 290 290 290 290 290 291 291 291 291 291 292 292 292 291 291 291 290 290 289 289 289 288 287
282 283 284 285 286 287 288 288 289 289 289 289 290 291 291 291 291 291 291 292 292 292 292 293 293 294 294 295 295 296 296 296 296 296 295 295 294 294 293 293 293 292 290
283 284 285 286 287 288 288 288 287 288 289 290 290 290 292 293 293 293 294 295 296 297 298 298 298 299 299 299 299 300 301 301 300 300 300 301 300 299 299 299 299 299 298
284 284 285 286 287 287 287 288 288 289 289 290 290 290 292 293 294 296 297 299 300 301 302 303 303 304 304 304 304 305 305 306 306 306 307 307 307 306 305 305 305 303 302
284 284 285 285 285 286 287 287 288 288 289 290 291 292 293 295 297 299 301 302 304 306 308 309 310 312 313 313 313 313 314 315 314 314 314 314 314 312 311 310 309 308 308
285 285 285 285 285 285 285 285 287 289 290 290 292 294 296 297 300 303 305 307 309 311 313 314 316 318 319 320 321 322 323 323 323 322 323 322 321 319 319 318 318 318 317
283 284 285 285 285 286 286 287 288 289 290 291 293 294 296 299 303 306 309 311 312 314 316 318 319 321 322 324 326 328 330 331 331 331 330 329 328 328 329 329 329 328 326
286 286 286 286 287 288 288 288 289 290 290 292 292 294 297 300 304 309 312 314 315 317 318 319 320 322 325 328 332 334 334 335 336 335 335 335 335 335 336 337 337 337 336
286 286 286 287 288 289 289 290 290 291 291 292 293 295 298 303 308 312 314 316 318 320 322 322 324 326 328 331 333 334 336 337 339 339 339 340 341 342 342 343 345 345 343
Height
5880 5881 5881 5881 5882 5882 5883 5882 5882 5882 5881 5880 5879 5878 5877 5876 5875 5874 5873 5872 5871 5870 5869 5867 5866 5865 5864 5864 5863 5862 5861 5860 5859 5859 5858 5857 5856 5856 5856 5855 5855 5854 5854
5876 5877 5877 5878 5878 5878 5879 5879 5878 5878 5877 5876 5875 5874 5873 5871 5870 5869 5867 5866 5865 5864 5863 5862 5860 5859 5859 5858 5857 5856 5855 5854 5854 5853 5852 5851 5851 5850 5849 5849 5848 5848 5847
5872 5873 5874 5874 5874 5874 5874 5874 5874 5873 5872 5871 5870 5869 5867 5866 5865 5863 5862 5860 5859 5858 5857 5855 5854 5853 5852 5851 5851 5850 5849 5848 5847 5846 5845 5844 5843 5843 5842 5841 5841 5840 5840
5868 5868 5869 5870 5870 5869 5869 5869 5869 5868 5867 5866 5865 5863 5862 5861 5859 5858 5856 5854 5853 5852 5850 5849 5848 5847 5846 5845 5844 5842 5841 5840 5839 5838 5837 5836 5835 5834 5833 5832 5832 5831 5830
5863 5863 5864 5864 5864 5864 5864 5864 5863 5862 5861 5860 5859 5858 5856 5855 5854 5852 5850 5849 5847 5846 5844 5843 5842 5841 5839 5838 5836 5835 5833 5832 5831 5829 5828 5827 5826 5824 5823 5822 5821 5821 5820
5857 5857 5858 5858 5858 5858 5858 5858 5857 5857 5856 5854 5853 5852 5850 5849 5848 5846 5844 5842 5841 5839 5837 5836 5835 5833 5832 5830 5828 5827 5825 5823 5822 5820 5819 5817 5816 5814 5812 5811 5810 5809 5808
5851 5852 5852 5852 5853 5853 5852 5852 5851 5851 5850 5848 5847 5845 5844 5843 5841 5840 5838 5836 5834 5832 5830 5829 5827 5825 5823 5821 5819 5817 5815 5813 5811 5809 5807 5805 5803 5802 5800 5798 5797 5796 5794
5845 5846 5846 5846 5846 5846 5845 5845 5845 5844 5843 5841 5840 5839 5837 5836 5834 5833 5831 5828 5826 5824 5822 5820 5819 5817 5815 5812 5810 5807 5805 5802 5800 5798 5795 5793 5791 5789 5786 5784 5782 5781 5779
5840 5840 5840 5840 5839 5839 5839 5838 5838 5837 5836 5835 5833 5832 5831 5829 5827 5825 5823 5820 5818 5815 5813 5811 5809 5807 5804 5802 5799 5796 5794 5790 5787 5784 5782 5779 5777 5774 5771 5769 5767 5765 5764
5834 5834 5834 5833 5833 5832 5832 5831 5830 5830 5829 5828 5826 5825 5823 5821 5819 5817 5815 5812 5809 5806 5803 5801 5798 5796 5793 5790 5787 5784 5781 5777 5774 5770 5767 5764 5761 5758 5755 5753 5750 5748 5746
5828 5828 5828 5827 5826 5825 5825 5824 5823 5822 5821 5820 5818 5816 5814 5812 5810 5808 5806 5802 5799 5796 5793 5790 5787 5784 5781 5777 5774 5770 5766 5763 5759 5755 5751 5747 5743 5740 5737 5735 5732 5730 5728
5822 5821 5821 5820 5819 5818 5817 5816 5815 5814 5812 5811 5809 5807 5805 5803 5801 5798 5795 5792 5788 5785 5781 5778 5775 5771 5768 5764 5760 5756 5751 5747 5743 5738 5734 5730 5726 5722 5719 5716 5713 5710 5709
5814 5814 5813 5813 5812 5810 5809 5808 5807 5805 5803 5802 5800 5798 5795 5792 5790 5787 5784 5781 5777 5773 5769 5766 5762 5758 5754 5750 5745 5741 5736 5731 5726 5721 5717 5713 5708 5704 5701 5697 5693 5690 5688
5807 5807 5806 5805 5804 5802 5801 5799 5798 5796 5794 5792 5789 5787 5784 5781 5779 5776 5773 5769 5765 5760 5756 5753 5749 5745 5740 5735 5731 5726 5720 5715 5710 5705 5700 5695 5691 5686 5682 5678 5674 5670 5667
5800 5799 5798 5797 5795 5793 5792 5790 5788 5786 5783 5781 5779 5776 5773 5770 5767 5764 5761 5757 5753 5748 5743 5739 5735 5730 5725 5720 5715 5710 5705 5700 5695 5689 5684 5679 5674 5669 5664 5660 5655 5652 5649
5791 5790 5789 5787 5786 5784 5782 5780 5777 5775 5773 5770 5767 5765 5762 5758 5755 5751 5748 5744 5740 5735 5730 5725 5721 5716 5711 5706 5701 5696 5691 5685 5680 5675 5669 5664 5659 5654 5649 5644 5639 5636 5633
5782 5781 5779 5777 5775 5774 5771 5769 5767 5764 5762 5759 5756 5753 5750 5746 5743 5739 5735 5731 5727 5722 5717 5712 5707 5703 5698 5693 5687 5682 5676 5671 5666 5660 5655 5650 5644 5639 5634 5629 5625 5621 5618
5772 5770 5769 5767 5765 5763 5761 5759 5756 5753 5750 5748 5745 5741 5738 5734 5731 5727 5723 5718 5714 5709 5705 5700 5695 5690 5685 5680 5674 5669 5663 5658 5653 5647 5641 5636 5631 5626 5621 5617 5612 5608 5604
5762 5760 5758 5756 5754 5752 5750 5748 5745 5742 5739 5737 5733 5730 5727 5723 5719 5715 5711 5706 5702 5698 5693 5688 5683 5678 5673 5668 5662 5657 5652 5646 5641 5635 5630 5625 5620 5615 5610 5606 5601 5597 5593
5752 5750 5748 5746 5744 5742 5739 5737 5734 5732 5729 5726 5722 5719 5716 5712 5708 5704 5700 5696 5691 5687 5682 5678 5673 5668 5662 5657 5652 5647 5642 5636 5631 5625 5620 5615 5611 5606 5601 5597 5593 5588 5584
5742 5740 5738 5736 5734 5732 5729 5727 5724 5722 5719 5715 5712 5709 5706 5702 5698 5695 5691 5686 5682 5677 5673 5669 5664 5659 5653 5648 5644 5639 5633 5628 5622 5617 5613 5608 5603 5598 5594 5589 5584 5580 5576
5732 5730 5728 5726 5724 5722 5720 5717 5715 5712 5709 5706 5703 5700 5696 5693 5690 5686 5682 5678 5674 5670 5666 5661 5656 5651 5646 5642 5637 5632 5626 5622 5617 5612 5607 5602 5597 5593 5588 5583 5578 5574 5569
5723 5721 5719 5717 5715 5713 5710 5708 5705 5702 5700 5697 5694 5691 5688 5685 5682 5679 5675 5671 5668 5664 5660 5656 5651 5646 5641 5637 5632 5627 5622 5617 5612 5608 5603 5598 5593 5588 5583 5578 5573 5569 5564
5715 5713 5711 5709 5706 5704 5702 5699 5696 5694 5691 5689 5687 5684 5681 5679 5676 5673 5670 5666 5663 5659 5655 5650 5646 5642 5638 5633 5628 5624 5619 5614 5609 5604 5599 5594 5589 5584 5579 5574 5570 5565 5560
5707 5705 5703 5701 5698 5696 5694 5692 5689 5687 5685 5682 5680 5678 5676 5673 5671 5668 5665 5661 5658 5654 5650 5646 5642 5638 5634 5629 5625 5620 5616 5611 5606 5601 5597 5592 5587 5582 5577 5572 5567 5562 5557
5700 5698 5695 5693 5691 5689 5687 5685 5683 5680 5678 5677 5675 5673 5671 5668 5666 5663 5660 5657 5653 5649 5646 5642 5638 5634 5630 5626 5622 5618 5613 5609 5604 5599 5595 5590 5585 5580 5576 5571 5565 5560 5555